Time,TemperatureF,DewpointF,PressureIn,WindDirection,WindDirectionDegrees,WindSpeedMPH,WindSpeedGustMPH,Humidity,HourlyPrecipIn,Conditions,Clouds,dailyrainin,SoftwareType,DateUTC
2013-01-12 00:03:00,51.0,45.0,-100.00,South,176,7.0,24.0,82,0.00,,,-99.99,,2013-01-12 05:03:00,
2013-01-12 00:12:00,51.0,45.0,-100.00,South,172,9.0,24.0,82,0.00,,,-99.99,,2013-01-12 05:12:00,
2013-01-12 00:22:00,52.0,45.0,-100.00,South,173,9.0,24.0,82,0.00,,,-99.99,,2013-01-12 05:22:00,
2013-01-12 00:32:00,53.0,46.0,-100.00,South,182,12.0,24.0,78,0.00,,,-99.99,,2013-01-12 05:32:00,
2013-01-12 00:42:00,53.0,45.0,-100.00,SSW,194,14.0,24.0,78,0.00,,,-99.99,,2013-01-12 05:42:00,
2013-01-12 00:52:00,53.0,46.0,-100.00,South,175,12.0,24.0,80,0.00,,,-99.99,,2013-01-12 05:52:00,
2013-01-12 01:03:00,51.0,45.0,-100.00,SSW,192,12.0,24.0,82,0.00,,,-99.99,,2013-01-12 06:03:00,
2013-01-12 01:12:00,52.0,45.0,-100.00,SSW,196,11.0,24.0,82,0.00,,,-99.99,,2013-01-12 06:12:00,
2013-01-12 01:22:00,48.0,43.0,-100.00,South,182,9.0,24.0,84,0.00,,,-99.99,,2013-01-12 06:22:00,
2013-01-12 01:33:00,50.0,43.0,-100.00,South,186,9.0,24.0,82,0.00,,,-99.99,,2013-01-12 06:33:00,
2013-01-12 01:43:00,50.0,45.0,-100.00,South,189,7.0,24.0,85,0.00,,,-99.99,,2013-01-12 06:43:00,
2013-01-12 01:52:00,50.0,45.0,-100.00,SSW,199,7.0,24.0,84,0.00,,,-99.99,,2013-01-12 06:52:00,
2013-01-12 02:02:00,51.0,45.0,-100.00,SSW,200,7.0,24.0,81,0.00,,,-99.99,,2013-01-12 07:02:00,
2013-01-12 02:12:00,50.0,43.0,-100.00,SSW,193,8.0,24.0,82,0.00,,,-99.99,,2013-01-12 07:12:00,
2013-01-12 02:22:00,51.0,45.0,-100.00,SSW,196,9.0,24.0,82,0.00,,,-99.99,,2013-01-12 07:22:00,
2013-01-12 02:32:00,50.0,45.0,-100.00,SSW,208,9.0,24.0,84,0.00,,,-99.99,,2013-01-12 07:32:00,
2013-01-12 02:42:00,51.0,45.0,-100.00,South,186,8.0,24.0,84,0.00,,,-99.99,,2013-01-12 07:42:00,
2013-01-12 02:52:00,50.0,45.0,-100.00,SSW,201,8.0,24.0,85,0.00,,,-99.99,,2013-01-12 07:52:00,
2013-01-12 03:02:00,49.0,45.0,-100.00,SSW,196,6.0,24.0,85,0.00,,,-99.99,,2013-01-12 08:02:00,
2013-01-12 03:12:00,49.0,45.0,-100.00,SSW,192,7.0,24.0,85,0.00,,,-99.99,,2013-01-12 08:12:00,
2013-01-12 03:22:00,49.0,43.0,-100.00,South,186,7.0,24.0,84,0.00,,,-99.99,,2013-01-12 08:22:00,
2013-01-12 03:32:00,49.0,45.0,-100.00,South,190,8.0,24.0,85,0.00,,,-99.99,,2013-01-12 08:32:00,
2013-01-12 03:42:00,49.0,43.0,-100.00,SSW,194,9.0,24.0,85,0.00,,,-99.99,,2013-01-12 08:42:00,
2013-01-12 03:52:00,48.0,45.0,-100.00,SSW,194,7.0,24.0,88,0.00,,,-99.99,,2013-01-12 08:52:00,
2013-01-12 04:02:00,49.0,45.0,-100.00,SSW,196,8.0,24.0,86,0.00,,,-99.99,,2013-01-12 09:02:00,
2013-01-12 04:12:00,49.0,45.0,-100.00,South,184,9.0,24.0,86,0.00,,,-99.99,,2013-01-12 09:12:00,
2013-01-12 04:22:00,49.0,45.0,-100.00,SSW,194,9.0,24.0,86,0.00,,,-99.99,,2013-01-12 09:22:00,
2013-01-12 04:32:00,49.0,43.0,-100.00,South,183,9.0,24.0,86,0.00,,,-99.99,,2013-01-12 09:32:00,
2013-01-12 04:42:00,49.0,43.0,-100.00,South,186,10.0,24.0,85,0.00,,,-99.99,,2013-01-12 09:42:00,
2013-01-12 04:53:00,48.0,43.0,-100.00,SSW,193,10.0,24.0,86,0.00,,,-99.99,,2013-01-12 09:53:00,
2013-01-12 05:02:00,50.0,45.0,-100.00,SSW,192,10.0,24.0,86,0.00,,,-99.99,,2013-01-12 10:02:00,
2013-01-12 05:12:00,50.0,45.0,-100.00,South,187,12.0,24.0,86,0.00,,,-99.99,,2013-01-12 10:12:00,
2013-01-12 05:22:00,49.0,45.0,-100.00,South,184,11.0,24.0,86,0.00,,,-99.99,,2013-01-12 10:22:00,
2013-01-12 05:32:00,49.0,45.0,-100.00,South,184,11.0,24.0,86,0.00,,,-99.99,,2013-01-12 10:32:00,
2013-01-12 05:43:00,49.0,45.0,-100.00,South,184,11.0,24.0,86,0.00,,,-99.99,,2013-01-12 10:43:00,
2013-01-12 05:52:00,50.0,45.0,-100.00,South,186,11.0,24.0,86,0.00,,,-99.99,,2013-01-12 10:52:00,
2013-01-12 06:02:00,49.0,45.0,-100.00,South,183,11.0,24.0,86,0.00,,,-99.99,,2013-01-12 11:02:00,
2013-01-12 06:12:00,50.0,45.0,-100.00,South,183,11.0,24.0,86,0.00,,,-99.99,,2013-01-12 11:12:00,
2013-01-12 06:22:00,51.0,46.0,-100.00,SSW,193,12.0,24.0,86,0.00,,,-99.99,,2013-01-12 11:22:00,
2013-01-12 06:33:00,49.0,45.0,-100.00,South,189,11.0,24.0,88,0.00,,,-99.99,,2013-01-12 11:33:00,
2013-01-12 06:42:00,50.0,46.0,-100.00,SSW,194,11.0,24.0,89,0.00,,,-99.99,,2013-01-12 11:42:00,
2013-01-12 06:53:00,50.0,46.0,-100.00,South,177,11.0,24.0,89,0.00,,,-99.99,,2013-01-12 11:53:00,
2013-01-12 07:03:00,50.0,46.0,-100.00,South,186,11.0,24.0,89,0.00,,,-99.99,,2013-01-12 12:03:00,
2013-01-12 07:12:00,50.0,46.0,-100.00,South,186,12.0,24.0,89,0.00,,,-99.99,,2013-01-12 12:12:00,
2013-01-12 07:22:00,50.0,46.0,-100.00,South,189,11.0,24.0,90,0.00,,,-99.99,,2013-01-12 12:22:00,
2013-01-12 07:33:00,49.0,45.0,-100.00,South,186,11.0,24.0,90,0.00,,,-99.99,,2013-01-12 12:33:00,
2013-01-12 07:43:00,49.0,46.0,-100.00,SSW,193,11.0,24.0,91,0.00,,,-99.99,,2013-01-12 12:43:00,
2013-01-12 07:52:00,49.0,46.0,-100.00,South,189,11.0,24.0,91,0.00,,,-99.99,,2013-01-12 12:52:00,
2013-01-12 08:02:00,49.0,46.0,-100.00,South,186,11.0,24.0,91,0.00,,,-99.99,,2013-01-12 13:02:00,
2013-01-12 08:12:00,49.0,46.0,-100.00,South,189,11.0,24.0,93,0.00,,,-99.99,,2013-01-12 13:12:00,
2013-01-12 08:23:00,49.0,46.0,-100.00,South,189,11.0,24.0,94,0.00,,,-99.99,,2013-01-12 13:23:00,
2013-01-12 08:33:00,50.0,46.0,-100.00,SSW,200,11.0,24.0,93,0.00,,,-99.99,,2013-01-12 13:33:00,
2013-01-12 08:43:00,49.0,46.0,-100.00,SSW,201,8.0,24.0,93,0.00,,,-99.99,,2013-01-12 13:43:00,
2013-01-12 08:53:00,49.0,46.0,-100.00,South,187,7.0,24.0,93,0.00,,,-99.99,,2013-01-12 13:53:00,
2013-01-12 09:02:00,49.0,46.0,-100.00,SSW,200,6.0,24.0,94,0.00,,,-99.99,,2013-01-12 14:02:00,
2013-01-12 09:12:00,49.0,46.0,-100.00,South,182,6.0,24.0,94,0.00,,,-99.99,,2013-01-12 14:12:00,
2013-01-12 09:22:00,49.0,46.0,-100.00,South,189,6.0,24.0,94,0.00,,,-99.99,,2013-01-12 14:22:00,
2013-01-12 09:33:00,50.0,48.0,-100.00,SSW,192,8.0,24.0,93,0.00,,,-99.99,,2013-01-12 14:33:00,
2013-01-12 09:43:00,51.0,48.0,-100.00,SW,214,7.0,24.0,93,0.00,,,-99.99,,2013-01-12 14:43:00,
2013-01-12 09:53:00,52.0,48.0,-100.00,SSW,196,8.0,24.0,93,0.00,,,-99.99,,2013-01-12 14:53:00,
2013-01-12 10:03:00,51.0,48.0,-100.00,South,182,9.0,24.0,94,0.00,,,-99.99,,2013-01-12 15:03:00,
2013-01-12 10:13:00,51.0,48.0,-100.00,South,177,8.0,24.0,91,0.00,,,-99.99,,2013-01-12 15:13:00,
2013-01-12 10:23:00,52.0,48.0,-100.00,South,187,9.0,24.0,94,0.00,,,-99.99,,2013-01-12 15:23:00,
2013-01-12 10:33:00,52.0,48.0,-100.00,South,179,9.0,24.0,93,0.00,,,-99.99,,2013-01-12 15:33:00,
2013-01-12 10:43:00,52.0,50.0,-100.00,South,186,9.0,24.0,94,0.00,,,-99.99,,2013-01-12 15:43:00,
2013-01-12 10:53:00,53.0,50.0,-100.00,South,186,10.0,24.0,91,0.00,,,-99.99,,2013-01-12 15:53:00,
2013-01-12 11:03:00,53.0,50.0,-100.00,South,169,9.0,24.0,91,0.00,,,-99.99,,2013-01-12 16:03:00,
2013-01-12 11:12:00,53.0,50.0,-100.00,South,187,8.0,8.0,91,0.00,,,-99.99,,2013-01-12 16:12:00,
2013-01-12 11:23:00,51.0,46.0,-100.00,South,180,10.0,14.0,90,0.00,,,-99.99,,2013-01-12 16:23:00,
2013-01-12 11:33:00,53.0,48.0,-100.00,South,184,9.0,14.0,89,0.00,,,-99.99,,2013-01-12 16:33:00,
2013-01-12 11:43:00,54.0,50.0,-100.00,South,173,9.0,14.0,90,0.00,,,-99.99,,2013-01-12 16:43:00,
2013-01-12 11:53:00,54.0,50.0,-100.00,South,175,9.0,14.0,89,0.00,,,-99.99,,2013-01-12 16:53:00,
2013-01-12 12:02:00,55.0,50.0,-100.00,South,170,9.0,14.0,89,0.00,,,-99.99,,2013-01-12 17:02:00,
2013-01-12 12:12:00,56.0,52.0,-100.00,South,186,10.0,14.0,89,0.00,,,-99.99,,2013-01-12 17:12:00,
2013-01-12 12:23:00,56.0,52.0,-100.00,SSE,168,9.0,14.0,88,0.00,,,-99.99,,2013-01-12 17:23:00,
2013-01-12 12:33:00,56.0,52.0,-100.00,South,183,9.0,14.0,86,0.00,,,-99.99,,2013-01-12 17:33:00,
2013-01-12 12:43:00,56.0,52.0,-100.00,SSW,193,12.0,14.0,88,0.00,,,-99.99,,2013-01-12 17:43:00,
2013-01-12 12:53:00,58.0,54.0,-100.00,South,186,12.0,14.0,86,0.00,,,-99.99,,2013-01-12 17:53:00,
2013-01-12 13:03:00,57.0,52.0,-100.00,SSW,197,13.0,17.0,84,0.00,,,-99.99,,2013-01-12 18:03:00,
2013-01-12 13:12:00,58.0,52.0,-100.00,SSW,192,13.0,17.0,85,0.00,,,-99.99,,2013-01-12 18:12:00,
2013-01-12 13:23:00,57.0,52.0,-100.00,SSW,206,12.0,17.0,86,0.00,,,-99.99,,2013-01-12 18:23:00,
2013-01-12 13:33:00,57.0,52.0,-100.00,SSW,197,11.0,17.0,86,0.00,,,-99.99,,2013-01-12 18:33:00,
2013-01-12 13:43:00,58.0,52.0,-100.00,SW,220,12.0,17.0,85,0.00,,,-99.99,,2013-01-12 18:43:00,
2013-01-12 13:52:00,58.0,54.0,-100.00,SSW,201,12.0,17.0,85,0.00,,,-99.99,,2013-01-12 18:52:00,
2013-01-12 14:03:00,59.0,54.0,-100.00,SSW,207,11.0,17.0,84,0.00,,,-99.99,,2013-01-12 19:03:00,
2013-01-12 14:12:00,58.0,52.0,-100.00,SW,217,11.0,17.0,82,0.00,,,-99.99,,2013-01-12 19:12:00,
2013-01-12 14:23:00,59.0,52.0,-100.00,SW,232,9.0,17.0,82,0.00,,,-99.99,,2013-01-12 19:23:00,
2013-01-12 14:33:00,59.0,52.0,-100.00,SW,228,11.0,17.0,82,0.00,,,-99.99,,2013-01-12 19:33:00,
2013-01-12 14:43:00,60.0,54.0,-100.00,SW,220,9.0,17.0,81,0.00,,,-99.99,,2013-01-12 19:43:00,
2013-01-12 14:52:00,59.0,52.0,-100.00,SSW,211,7.0,17.0,82,0.00,,,-99.99,,2013-01-12 19:52:00,
2013-01-12 15:03:00,60.0,54.0,-100.00,SW,220,7.0,17.0,81,0.00,,,-99.99,,2013-01-12 20:03:00,
2013-01-12 15:13:00,59.0,52.0,-100.00,SSW,210,9.0,17.0,82,0.00,,,-99.99,,2013-01-12 20:13:00,
2013-01-12 15:22:00,59.0,52.0,-100.00,SSW,213,7.0,17.0,82,0.00,,,-99.99,,2013-01-12 20:22:00,
2013-01-12 15:33:00,60.0,54.0,-100.00,SSW,193,7.0,17.0,81,0.00,,,-99.99,,2013-01-12 20:33:00,
2013-01-12 15:42:00,60.0,54.0,-100.00,SSW,203,7.0,17.0,84,0.00,,,-99.99,,2013-01-12 20:42:00,
2013-01-12 15:53:00,60.0,54.0,-100.00,SSW,207,8.0,17.0,82,0.00,,,-99.99,,2013-01-12 20:53:00,
2013-01-12 16:03:00,59.0,52.0,-100.00,South,186,6.0,17.0,81,0.00,,,-99.99,,2013-01-12 21:03:00,
2013-01-12 16:12:00,60.0,54.0,-100.00,SSW,204,6.0,17.0,81,0.00,,,-99.99,,2013-01-12 21:12:00,
2013-01-12 16:22:00,58.0,52.0,-100.00,SSW,213,6.0,17.0,82,0.00,,,-99.99,,2013-01-12 21:22:00,
2013-01-12 16:33:00,59.0,54.0,-100.00,South,190,4.0,17.0,84,0.00,,,-99.99,,2013-01-12 21:33:00,
2013-01-12 16:43:00,58.0,52.0,-100.00,South,184,5.0,17.0,82,0.00,,,-99.99,,2013-01-12 21:43:00,
2013-01-12 16:52:00,58.0,52.0,-100.00,South,189,6.0,17.0,82,0.00,,,-99.99,,2013-01-12 21:52:00,
2013-01-12 17:03:00,57.0,52.0,-100.00,South,175,4.0,17.0,86,0.00,,,-99.99,,2013-01-12 22:03:00,
2013-01-12 17:12:00,58.0,52.0,-100.00,South,175,4.0,17.0,84,0.00,,,-99.99,,2013-01-12 22:12:00,
2013-01-12 17:23:00,58.0,52.0,-100.00,South,172,2.0,17.0,85,0.00,,,-99.99,,2013-01-12 22:23:00,
2013-01-12 17:33:00,57.0,52.0,-100.00,South,169,2.0,17.0,86,0.00,,,-99.99,,2013-01-12 22:33:00,
2013-01-12 17:43:00,56.0,52.0,-100.00,SSE,163,2.0,17.0,86,0.00,,,-99.99,,2013-01-12 22:43:00,
2013-01-12 17:52:00,57.0,52.0,-100.00,SE,144,2.0,17.0,85,0.00,,,-99.99,,2013-01-12 22:52:00,
2013-01-12 18:03:00,56.0,50.0,-100.00,SE,144,1.0,17.0,86,0.00,,,-99.99,,2013-01-12 23:03:00,
2013-01-12 18:13:00,55.0,50.0,-100.00,SE,145,1.0,17.0,86,0.00,,,-99.99,,2013-01-12 23:13:00,
2013-01-12 18:23:00,55.0,50.0,-100.00,SE,144,1.0,17.0,88,0.00,,,-99.99,,2013-01-12 23:23:00,
2013-01-12 18:33:00,55.0,50.0,-100.00,SE,141,2.0,17.0,86,0.00,,,-99.99,,2013-01-12 23:33:00,
2013-01-12 18:43:00,54.0,50.0,-100.00,SE,139,2.0,17.0,89,0.00,,,-99.99,,2013-01-12 23:43:00,
2013-01-12 18:53:00,55.0,52.0,-100.00,SE,138,2.0,17.0,90,0.00,,,-99.99,,2013-01-12 23:53:00,
2013-01-12 19:03:00,54.0,50.0,-100.00,SE,138,1.0,17.0,91,0.00,,,-99.99,,2013-01-13 00:03:00,
2013-01-12 19:12:00,53.0,50.0,-100.00,SE,138,0.0,17.0,90,0.00,,,-99.99,,2013-01-13 00:12:00,
2013-01-12 19:23:00,54.0,50.0,-100.00,SE,138,1.0,17.0,91,0.00,,,-99.99,,2013-01-13 00:23:00,
2013-01-12 19:33:00,52.0,50.0,-100.00,SE,136,1.0,17.0,94,0.00,,,-99.99,,2013-01-13 00:33:00,
2013-01-12 19:43:00,53.0,50.0,-100.00,SE,135,2.0,17.0,93,0.00,,,-99.99,,2013-01-13 00:43:00,
2013-01-12 19:52:00,53.0,50.0,-100.00,SE,134,1.0,17.0,93,0.00,,,-99.99,,2013-01-13 00:52:00,
2013-01-12 20:03:00,54.0,50.0,-100.00,SE,134,0.0,17.0,93,0.00,,,-99.99,,2013-01-13 01:03:00,
2013-01-12 20:12:00,52.0,50.0,-100.00,SE,132,1.0,17.0,93,0.00,,,-99.99,,2013-01-13 01:12:00,
2013-01-12 20:23:00,52.0,50.0,-100.00,SE,129,2.0,17.0,94,0.00,,,-99.99,,2013-01-13 01:23:00,
2013-01-12 20:33:00,52.0,50.0,-100.00,SE,128,1.0,17.0,94,0.00,,,-99.99,,2013-01-13 01:33:00,
2013-01-12 20:43:00,52.0,48.0,-100.00,ENE,62,2.0,17.0,94,0.00,,,-99.99,,2013-01-13 01:43:00,
2013-01-12 20:52:00,53.0,50.0,-100.00,NE,50,2.0,17.0,94,0.00,,,-99.99,,2013-01-13 01:52:00,
2013-01-12 21:02:00,53.0,50.0,-100.00,NE,52,2.0,17.0,94,0.00,,,-99.99,,2013-01-13 02:02:00,
2013-01-12 21:13:00,53.0,50.0,-100.00,ENE,64,3.0,17.0,94,0.00,,,-99.99,,2013-01-13 02:13:00,
2013-01-12 21:23:00,54.0,52.0,-100.00,ENE,72,2.0,17.0,94,0.00,,,-99.99,,2013-01-13 02:23:00,
2013-01-12 21:33:00,53.0,50.0,-100.00,ENE,59,2.0,17.0,94,10.79,,,-99.99,,2013-01-13 02:33:00,
2013-01-12 21:43:00,53.0,50.0,-100.00,ENE,64,1.0,17.0,94,-99.99,,,-99.99,,2013-01-13 02:43:00,
2013-01-12 21:53:00,53.0,50.0,-100.00,NNE,29,2.0,17.0,95,-99.99,,,-99.99,,2013-01-13 02:53:00,
2013-01-12 22:03:00,53.0,52.0,-100.00,NNE,14,1.0,17.0,97,7.36,,,-99.99,,2013-01-13 03:03:00,
2013-01-12 22:12:00,53.0,52.0,-100.00,NNW,343,1.0,17.0,98,-99.99,,,-99.99,,2013-01-13 03:12:00,
2013-01-12 22:22:00,53.0,52.0,-100.00,North,354,2.0,17.0,98,-99.99,,,-99.99,,2013-01-13 03:22:00,
2013-01-12 22:33:00,53.0,52.0,-100.00,NNW,327,2.0,17.0,98,-99.99,,,-99.99,,2013-01-13 03:33:00,
2013-01-12 22:43:00,54.0,52.0,-100.00,NE,43,4.0,17.0,98,-99.99,,,-99.99,,2013-01-13 03:43:00,
2013-01-12 22:52:00,53.0,52.0,-100.00,NNE,22,3.0,17.0,99,-99.99,,,-99.99,,2013-01-13 03:52:00,
2013-01-12 23:03:00,54.0,52.0,-100.00,North,8,4.0,17.0,98,-99.99,,,-99.99,,2013-01-13 04:03:00,
2013-01-12 23:12:00,53.0,52.0,-100.00,NE,46,3.0,17.0,98,-99.99,,,-99.99,,2013-01-13 04:12:00,
2013-01-12 23:22:00,53.0,52.0,-100.00,NNE,28,4.0,17.0,98,-99.99,,,-99.99,,2013-01-13 04:22:00,
2013-01-12 23:33:00,54.0,52.0,-100.00,NNE,14,6.0,17.0,98,24.96,,,-99.99,,2013-01-13 04:33:00,
2013-01-12 23:43:00,54.0,52.0,-100.00,NNE,29,7.0,17.0,98,14.17,,,-99.99,,2013-01-13 04:43:00,
2013-01-12 23:52:00,54.0,52.0,-100.00,NNE,29,7.0,17.0,98,-99.99,,,-99.99,,2013-01-13 04:52:00,